DW5533 Weather Reports


time (UTC)temp
C
wind
direction
speed
KPH
gust
KPH
rain 1hr
cm
rain 24hr
cm
rain mn
cm
humidity
%
barometer
mb
20260506211516 7 344 1.6 6.4 0.00 0.10 0.00 98 1003.6
20260506210016 8 329 0.0 4.8 0.00 0.10 0.00 98 1003.4
20260506204513 8 355 0.0 4.8 0.00 0.10 0.00 98 1003.4
20260506203011 8 355 0.0 4.8 0.00 0.10 0.00 98 1003.0
20260506201510 8 355 0.0 4.8 0.00 0.10 0.00 98 1003.0
20260506200009 8 34 0.0 3.2 0.00 0.10 0.00 98 1003.0
20260506194506 8 34 0.0 1.6 0.00 0.10 0.00 98 1003.2
20260506193005 9 50 0.0 3.2 0.00 0.10 0.00 98 1003.3
20260506191508 9 50 0.0 4.8 0.00 0.10 0.00 98 1003.2
20260506190059 10 360 0.0 1.6 0.00 0.10 0.00 98 1003.4
20260506184601 10 360 0.0 0.0 0.00 0.10 0.00 98 1003.3
20260506183055 10 274 0.0 1.6 0.00 0.10 0.00 98 1003.3
20260506181552 11 320 0.0 4.8 0.00 0.10 0.00 98 1003.6
20260506180033 13 85 0.0 0.0 0.00 0.10 0.00 98 1003.9
20260506174530 13 85 0.0 0.0 0.00 0.10 0.00 98 1003.9
20260506173030 13 85 0.0 0.0 0.00 0.10 0.00 98 1003.9
20260506171542 13 85 0.0 0.0 0.00 0.10 0.00 98 1003.9
20260506170025 12 85 0.0 0.0 0.00 0.10 0.00 98 1003.9
20260506164525 12 85 0.0 0.0 0.00 0.10 0.00 98 1004.0
20260506163037 12 85 0.0 0.0 0.00 0.10 0.00 98 1004.1
20260506161521 12 85 0.0 0.0 0.00 0.10 0.00 98 1004.3
20260506160023 12 85 0.0 0.0 0.00 0.10 0.00 98 1004.6
20260506154522 12 85 0.0 0.0 0.00 0.10 0.00 98 1004.9
20260506153015 12 85 0.0 0.0 0.00 0.10 0.00 98 1005.2
20260506151514 11 85 0.0 0.0 0.00 0.10 0.00 98 1005.3
20260506150013 11 85 0.0 0.0 0.00 0.10 0.00 98 1005.5
20260506144511 11 85 0.0 0.0 0.00 0.10 0.00 98 1005.5
20260506143016 12 85 0.0 0.0 0.00 0.10 0.00 98 1005.5
20260506141510 11 85 0.0 0.0 0.00 0.10 0.00 98 1005.7
20260506140010 11 85 0.0 0.0 0.00 0.10 0.00 98 1005.6
20260506134508 11 85 0.0 0.0 0.00 0.10 0.00 98 1005.5
20260506133008 11 85 0.0 0.0 0.00 0.10 0.00 98 1005.6
20260506131506 11 85 0.0 0.0 0.00 0.10 0.00 98 1006.2
20260506130006 11 85 0.0 0.0 0.00 0.10 0.00 98 1006.0
20260506124505 11 85 0.0 0.0 0.00 0.10 0.00 98 1006.1
20260506123005 11 37 0.0 0.0 0.00 0.10 0.00 98 1005.9
20260506121504 11 37 0.0 0.0 0.00 0.10 0.00 98 1006.1
20260506120004 11 37 0.0 0.0 0.00 0.10 0.00 98 1005.9
20260506114502 11 37 0.0 0.0 0.00 0.10 0.00 98 1005.9
20260506113002 11 37 0.0 0.0 0.00 0.10 0.00 98 1006.0
20260506111501 11 37 0.0 0.0 0.00 0.10 0.00 98 1006.2
20260506110003 11 37 0.0 0.0 0.00 0.10 0.00 98 1006.1
20260506104600 11 37 0.0 0.0 0.00 0.10 0.00 98 1006.4
20260506103100 11 37 0.0 0.0 0.00 0.10 0.00 98 1006.3
20260506101559 11 37 0.0 0.0 0.00 0.10 0.00 98 1006.3
20260506100058 11 37 0.0 0.0 0.00 0.10 0.00 98 1006.3
20260506094557 11 37 0.0 0.0 0.00 0.10 0.00 97 1006.5
20260506093111 11 37 0.0 0.0 0.00 0.10 0.00 98 1006.5
20260506091556 11 37 0.0 0.0 0.00 0.10 0.00 98 1006.5
20260506090103 11 37 0.0 0.0 0.00 0.10 0.00 98 1006.7
20260506084555 11 37 0.0 0.0 0.00 0.10 0.00 97 1006.7
20260506083053 11 37 0.0 0.0 0.00 0.10 0.00 97 1006.7
20260506081552 11 37 0.0 0.0 0.00 0.10 0.00 97 1006.4
20260506073059 11 37 0.0 0.0 0.00 0.10 0.00 97 1007.3
20260506071544 11 37 0.0 0.0 0.00 0.10 0.00 97 1006.8
20260506061555 11 37 0.0 0.0 0.00 0.10 0.00 96 1007.2
20260506044519 13 46 4.8 8.0 0.00 0.10 0.00 90 1006.9
20260506043017 14 163 0.0 0.0 0.00 0.10 0.00 90 1005.9
20260506041514 14 163 0.0 0.0 0.00 0.10 0.00 89 1005.6
20260506040017 14 111 0.0 0.0 0.00 0.10 0.00 89 1005.6
20260506034511 14 111 0.0 0.0 0.00 0.10 0.10 89 1005.5
20260506033010 14 111 0.0 1.6 0.00 0.10 0.10 89 1005.4
20260506031510 13 112 0.0 0.0 0.00 0.10 0.10 91 1005.6
20260506030008 13 112 0.0 0.0 0.00 0.10 0.10 93 1005.5
20260506024507 13 112 0.0 0.0 0.00 0.10 0.10 94 1005.4
20260506023005 13 112 0.0 0.0 0.00 0.10 0.10 94 1005.1
20260506021505 13 112 0.0 0.0 0.00 0.10 0.10 94 1005.1
20260506020004 13 112 0.0 0.0 0.00 0.10 0.10 93 1005.1
20260506014507 13 112 0.0 0.0 0.00 0.10 0.10 93 1005.1
20260506013100 13 112 0.0 0.0 0.00 0.10 0.10 93 1005.1
20260506011602 13 112 0.0 0.0 0.00 0.10 0.10 93 1005.1
20260506010104 13 112 0.0 0.0 0.00 0.10 0.10 93 1005.0
20260506004558 13 112 0.0 0.0 0.00 0.10 0.10 94 1004.9
20260506003057 13 112 0.0 0.0 0.00 0.10 0.10 95 1004.9
20260506001605 13 112 0.0 0.0 0.00 0.10 0.10 94 1004.5
20260506000119 13 112 0.0 0.0 0.00 0.10 0.10 94 1004.4
20260505234551 13 112 0.0 0.0 0.00 0.10 0.10 94 1004.2
20260505233054 13 112 0.0 0.0 0.00 0.10 0.10 94 1004.1
20260505231555 14 112 0.0 0.0 0.00 0.10 0.10 94 1004.1
20260505230051 14 112 0.0 0.0 0.00 0.10 0.10 94 1004.1
20260505224550 14 112 0.0 0.0 0.00 0.10 0.10 94 1004.1
20260505223046 14 112 0.0 0.0 0.03 0.10 0.10 95 1003.9
20260505221550 14 112 0.0 0.0 0.08 0.10 0.10 94 1003.7
20260505214545 15 115 0.0 0.0 0.10 0.10 0.10 91 1003.9
20260505213036 15 157 0.0 1.6 0.08 0.08 0.08 87 1004.2